Satellite: HRBE Catalog number: 37855 Epoch time: 15085.14184165 Element set: 999 Inclination: 101.7189 deg RA of node: 257.3195 deg Eccentricity: 0.0199670 Arg of perigee: 315.6462 deg Mean anomaly: 042.8896 deg Mean motion: 14.95559955 rev/day Decay rate: 7.722e-05 rev/day^2 Epoch rev: 18473 Checksum: 365
Satellite: RS-39 Catalog number: 38051 Epoch time: 14288.65876392 Element set: 999 Inclination: 051.5964 deg RA of node: 324.1908 deg Eccentricity: 0.0006422 Arg of perigee: 269.6897 deg Mean anomaly: 186.8903 deg Mean motion: 16.43533377 rev/day Decay rate: 7.0201582e-01 rev/day^2 Epoch rev: 15308 Checksum: 367
Satellite: E-STAR Catalog number: 38079 Epoch time: 15016.13455217 Element set: 999 Inclination: 069.3967 deg RA of node: 125.0648 deg Eccentricity: 0.0013168 Arg of perigee: 047.0341 deg Mean anomaly: 316.5109 deg Mean motion: 16.44007688 rev/day Decay rate: 1.7990388e-01 rev/day^2 Epoch rev: 15619 Checksum: 340
Satellite: GOLIAT Catalog number: 38085 Epoch time: 15047.13271005 Element set: 999 Inclination: 069.4022 deg RA of node: 049.8202 deg Eccentricity: 0.0017770 Arg of perigee: 344.8867 deg Mean anomaly: 016.3100 deg Mean motion: 16.44194733 rev/day Decay rate: 1.5174231e-01 rev/day^2 Epoch rev: 16069 Checksum: 300
Satellite: HORYU-2 Catalog number: 38340 Epoch time: 15085.85015693 Element set: 999 Inclination: 098.3048 deg RA of node: 053.7184 deg Eccentricity: 0.0012233 Arg of perigee: 005.9629 deg Mean anomaly: 354.1722 deg Mean motion: 14.73946856 rev/day Decay rate: 3.070e-05 rev/day^2 Epoch rev: 15340 Checksum: 314
Satellite: RS-40 Catalog number: 38735 Epoch time: 15085.66158049 Element set: 999 Inclination: 082.4724 deg RA of node: 111.4413 deg Eccentricity: 0.0016870 Arg of perigee: 004.6076 deg Mean anomaly: 355.5153 deg Mean motion: 12.42567529 rev/day Decay rate: 4.0e-07 rev/day^2 Epoch rev: 12066 Checksum: 302
Satellite: PROITERES Catalog number: 38756 Epoch time: 15085.75086716 Element set: 999 Inclination: 098.2165 deg RA of node: 183.6673 deg Eccentricity: 0.0011906 Arg of perigee: 196.5083 deg Mean anomaly: 163.5740 deg Mean motion: 14.75645950 rev/day Decay rate: 1.054e-05 rev/day^2 Epoch rev: 13684 Checksum: 341
Satellite: BEESAT-3 Catalog number: 39134 Epoch time: 15085.84453549 Element set: 999 Inclination: 064.8741 deg RA of node: 320.7057 deg Eccentricity: 0.0033836 Arg of perigee: 262.0382 deg Mean anomaly: 097.6900 deg Mean motion: 15.10685890 rev/day Decay rate: 9.552e-05 rev/day^2 Epoch rev: 10625 Checksum: 329
Satellite: BEESAT-2 Catalog number: 39136 Epoch time: 15084.82291395 Element set: 999 Inclination: 064.8749 deg RA of node: 325.7347 deg Eccentricity: 0.0034347 Arg of perigee: 261.9713 deg Mean anomaly: 097.7511 deg Mean motion: 15.09290193 rev/day Decay rate: 8.248e-05 rev/day^2 Epoch rev: 10607 Checksum: 341
Satellite: LO-75 Catalog number: 39382 Epoch time: 14295.69194059 Element set: 999 Inclination: 040.4713 deg RA of node: 030.2705 deg Eccentricity: 0.0002289 Arg of perigee: 341.7175 deg Mean anomaly: 018.4586 deg Mean motion: 16.19795749 rev/day Decay rate: 7.301741e-02 rev/day^2 Epoch rev: 47082 Checksum: 353
Satellite: ZACUBE-1 Catalog number: 39417 Epoch time: 15085.15033478 Element set: 999 Inclination: 097.7383 deg RA of node: 150.7626 deg Eccentricity: 0.0061757 Arg of perigee: 048.1301 deg Mean anomaly: 312.5157 deg Mean motion: 14.79396029 rev/day Decay rate: 2.367e-05 rev/day^2 Epoch rev: 7235 Checksum: 327
Satellite: TRITON-1 Catalog number: 39427 Epoch time: 15084.69786346 Element set: 999 Inclination: 097.7255 deg RA of node: 140.3285 deg Eccentricity: 0.0117655 Arg of perigee: 073.9633 deg Mean anomaly: 287.4493 deg Mean motion: 14.66403520 rev/day Decay rate: 1.981e-05 rev/day^2 Epoch rev: 7163 Checksum: 347
Satellite: DELFIN3XT Catalog number: 39428 Epoch time: 15085.44631598 Element set: 999 Inclination: 097.7249 deg RA of node: 139.5000 deg Eccentricity: 0.0126564 Arg of perigee: 075.9713 deg Mean anomaly: 285.5524 deg Mean motion: 14.64970234 rev/day Decay rate: 3.427e-05 rev/day^2 Epoch rev: 7163 Checksum: 339
Satellite: GOMX-1 Catalog number: 39430 Epoch time: 15085.85511255 Element set: 999 Inclination: 097.7186 deg RA of node: 134.8784 deg Eccentricity: 0.0155603 Arg of perigee: 089.1614 deg Mean anomaly: 272.7392 deg Mean motion: 14.57811366 rev/day Decay rate: 1.656e-05 rev/day^2 Epoch rev: 7138 Checksum: 340
Satellite: MO-76 Catalog number: 39436 Epoch time: 15084.74107933 Element set: 999 Inclination: 097.7520 deg RA of node: 160.6393 deg Eccentricity: 0.0023095 Arg of perigee: 028.9714 deg Mean anomaly: 331.2787 deg Mean motion: 15.02276484 rev/day Decay rate: 3.0753e-04 rev/day^2 Epoch rev: 7294 Checksum: 343
Satellite: LO-74 Catalog number: 39440 Epoch time: 15085.13514207 Element set: 999 Inclination: 097.7339 deg RA of node: 146.7826 deg Eccentricity: 0.0083631 Arg of perigee: 056.8845 deg Mean anomaly: 304.0356 deg Mean motion: 14.74241107 rev/day Decay rate: 2.150e-05 rev/day^2 Epoch rev: 7209 Checksum: 316
Satellite: PUCPSAT-1 Catalog number: 39442 Epoch time: 15085.46138803 Element set: 999 Inclination: 097.7456 deg RA of node: 157.3770 deg Eccentricity: 0.0034069 Arg of perigee: 038.5126 deg Mean anomaly: 321.8512 deg Mean motion: 14.88075752 rev/day Decay rate: 3.661e-05 rev/day^2 Epoch rev: 7156 Checksum: 330
Satellite: SHINAISAT Catalog number: 39572 Epoch time: 14328.13084988 Element set: 999 Inclination: 064.9728 deg RA of node: 197.0096 deg Eccentricity: 0.0013534 Arg of perigee: 259.7861 deg Mean anomaly: 100.1802 deg Mean motion: 16.45181032 rev/day Decay rate: 2.8848087e-01 rev/day^2 Epoch rev: 4240 Checksum: 336
Satellite: TEIKYOSAT Catalog number: 39576 Epoch time: 14297.85867254 Element set: 999 Inclination: 064.9818 deg RA of node: 300.5833 deg Eccentricity: 0.0008491 Arg of perigee: 317.3597 deg Mean anomaly: 044.3862 deg Mean motion: 16.45008906 rev/day Decay rate: 9.345816e-02 rev/day^2 Epoch rev: 3769 Checksum: 372
Satellite: CO-77 Catalog number: 39577 Epoch time: 14244.78324653 Element set: 999 Inclination: 064.9920 deg RA of node: 123.7668 deg Eccentricity: 0.0014904 Arg of perigee: 269.7208 deg Mean anomaly: 091.1897 deg Mean motion: 16.43552757 rev/day Decay rate: 1.0543803e-01 rev/day^2 Epoch rev: 2938 Checksum: 371
Satellite: SPROUT Catalog number: 39770 Epoch time: 15085.02890914 Element set: 999 Inclination: 097.8672 deg RA of node: 183.0142 deg Eccentricity: 0.0011240 Arg of perigee: 111.2659 deg Mean anomaly: 248.9776 deg Mean motion: 14.83559876 rev/day Decay rate: 1.626e-05 rev/day^2 Epoch rev: 4530 Checksum: 330
Satellite: POPSAT-HIP1 Catalog number: 40028 Epoch time: 15085.74743225 Element set: 999 Inclination: 097.9627 deg RA of node: 345.9384 deg Eccentricity: 0.0015844 Arg of perigee: 091.0468 deg Mean anomaly: 269.2594 deg Mean motion: 14.86599565 rev/day Decay rate: 2.277e-05 rev/day^2 Epoch rev: 4153 Checksum: 356
Satellite: EO-80 Catalog number: 40032 Epoch time: 15085.45732896 Element set: 999 Inclination: 097.9592 deg RA of node: 345.4034 deg Eccentricity: 0.0013982 Arg of perigee: 086.7248 deg Mean anomaly: 273.5521 deg Mean motion: 14.86321716 rev/day Decay rate: 2.400e-05 rev/day^2 Epoch rev: 4149 Checksum: 326
Satellite: VELOX-1 Catalog number: 40057 Epoch time: 15085.81609918 Element set: 999 Inclination: 098.2206 deg RA of node: 162.5723 deg Eccentricity: 0.0012305 Arg of perigee: 138.6460 deg Mean anomaly: 221.5661 deg Mean motion: 14.75419440 rev/day Decay rate: 2.524e-05 rev/day^2 Epoch rev: 3973 Checksum: 303
Satellite: DAURIA DX 1 Catalog number: 40071 Epoch time: 15085.79801608 Element set: 999 Inclination: 098.3643 deg RA of node: 153.8020 deg Eccentricity: 0.0009494 Arg of perigee: 138.3443 deg Mean anomaly: 221.8469 deg Mean motion: 14.80194643 rev/day Decay rate: 1.132e-05 rev/day^2 Epoch rev: 3860 Checksum: 306
Satellite: UKUBE-1 Catalog number: 40074 Epoch time: 15085.79405936 Element set: 999 Inclination: 098.3653 deg RA of node: 154.3313 deg Eccentricity: 0.0005648 Arg of perigee: 142.1710 deg Mean anomaly: 217.9867 deg Mean motion: 14.81774769 rev/day Decay rate: 2.395e-05 rev/day^2 Epoch rev: 3863 Checksum: 340
Satellite: CHASQUI-1 Catalog number: 40117 Epoch time: 15014.73322295 Element set: 999 Inclination: 051.6189 deg RA of node: 112.4445 deg Eccentricity: 0.0004239 Arg of perigee: 337.2783 deg Mean anomaly: 022.7551 deg Mean motion: 16.34635278 rev/day Decay rate: 7.508583e-02 rev/day^2 Epoch rev: 2336 Checksum: 310
Satellite: HODOYOSHI-1 Catalog number: 40299 Epoch time: 15085.80864909 Element set: 999 Inclination: 097.4593 deg RA of node: 168.3815 deg Eccentricity: 0.0014621 Arg of perigee: 064.2150 deg Mean anomaly: 051.7913 deg Mean motion: 15.18525201 rev/day Decay rate: 5.041e-05 rev/day^2 Epoch rev: 2131 Checksum: 298
Satellite: CHUBUSAT-1 Catalog number: 40300 Epoch time: 15085.79231361 Element set: 999 Inclination: 097.4567 deg RA of node: 167.8996 deg Eccentricity: 0.0023961 Arg of perigee: 063.0578 deg Mean anomaly: 031.5227 deg Mean motion: 15.16710423 rev/day Decay rate: 5.564e-05 rev/day^2 Epoch rev: 2128 Checksum: 312
Satellite: QSAT-EOS Catalog number: 40301 Epoch time: 15085.78275352 Element set: 999 Inclination: 097.4538 deg RA of node: 167.4032 deg Eccentricity: 0.0034387 Arg of perigee: 062.7505 deg Mean anomaly: 032.3215 deg Mean motion: 15.15370314 rev/day Decay rate: 1.0294e-04 rev/day^2 Epoch rev: 2125 Checksum: 282
Satellite: TSUBAME Catalog number: 40302 Epoch time: 15085.81992976 Element set: 999 Inclination: 097.4521 deg RA of node: 166.8157 deg Eccentricity: 0.0045411 Arg of perigee: 063.8377 deg Mean anomaly: 296.7633 deg Mean motion: 15.12003920 rev/day Decay rate: 5.866e-05 rev/day^2 Epoch rev: 2122 Checksum: 316
